Home   Weather   Samford   Past weeks

Flag for Australia Past Weather in Samford, Queensland, Australia — Yesterday and Last 2 Weeks

Now
66 °F

Passing clouds.


Feels Like: 66 °F
Forecast: 57 / 77 °F
Wind: 10 mph from Southwest

Location: Brisbane Airport M. O

Current Time: Apr 28, 2017 at 8:42:46 pm

Latest Report: Apr 28, 2017 at 8:00 pm


Visibility: N/A

Pressure: 30.04 "Hg

Humidity: 64%

Dew Point: 54 °F

Location of SamfordLocation

Past Weather in Samford — Graph

°F

Samford Temperature Yesterday

Maximum temperature yesterday: 72 °F (at 2:30 pm)
Minimum temperature yesterday: 55 °F (at 6:30 am)
Average temperature yesterday: 63 °F

High & Low Weather Summary for the Past Weeks

 TemperatureHumidityPressure
High77 °F (Apr 15, 10:30 am)100% (Apr 22, 3:00 am)30.30 "Hg (Apr 22, 3:00 am)
Low52 °F (Apr 28, 5:00 am)31% (Apr 27, 1:30 pm)29.77 "Hg (Apr 26, 3:30 pm)
Average68 °F72%30.11 "Hg
* Reported Apr 13 7:00 pm — Apr 28 7:30 pm, Samford, Weather by CustomWeather, © 2017

Note: Actual official high and low records may vary slightly from our data, if they occured in-between our weather recording intervals... More about our weather records

Advertising

Samford Weather History for the Previous 24 Hours

Scroll right to see more
 ConditionsComfort  
Time TempWeatherWind HumidityBarometerVisibility
7:30 pm
Fri, Apr 28
66 °FClear.12 mph64%30.04 "Hg10 mi
7:00 pm66 °FClear.13 mph64%30.01 "Hg10 mi
6:30 pm68 °FPassing clouds.14 mph60%30.01 "HgN/A
5:30 pm70 °FClear.13 mph57%29.98 "Hg10 mi
5:00 pm70 °FSunny.13 mph53%29.98 "Hg10 mi
4:30 pm72 °FSunny.14 mph50%29.98 "Hg10 mi
4:00 pm73 °FSunny.13 mph47%29.95 "Hg10 mi
3:30 pm72 °FSunny.12 mph50%29.95 "Hg10 mi
3:00 pm73 °FSunny.13 mph44%29.95 "Hg10 mi
2:30 pm73 °FSunny.12 mph47%29.95 "Hg10 mi
2:00 pm73 °FPassing clouds.6 mph44%29.95 "HgN/A
1:30 pm73 °FPassing clouds.8 mph44%29.95 "HgN/A
1:00 pm75 °FScattered clouds.13 mph41%29.95 "HgN/A
12:30 pm75 °FPassing clouds.15 mph39%29.95 "HgN/A
12:00 pm72 °FPassing clouds.13 mph44%29.98 "HgN/A
11:30 am72 °FPassing clouds.13 mph44%29.98 "HgN/A
11:00 am70 °FPassing clouds.8 mph43%30.01 "HgN/A
10:00 am68 °FSunny.15 mph43%30.01 "Hg10 mi
9:30 am66 °FSunny.15 mph46%30.04 "Hg10 mi
9:00 am63 °FSunny.15 mph52%30.01 "Hg10 mi
8:30 am63 °FSunny.17 mph49%30.04 "Hg10 mi
8:00 am63 °FSunny.9 mph52%30.01 "Hg10 mi
7:30 am59 °FSunny.9 mph59%30.01 "Hg10 mi
7:00 am57 °FSunny.7 mph67%30.01 "Hg10 mi
6:30 am54 °FSunny.7 mph77%29.98 "Hg10 mi
6:00 am54 °FClear.6 mph77%29.98 "Hg10 mi
5:30 am54 °FClear.8 mph77%29.95 "Hg10 mi
5:00 am52 °FClear.7 mph77%29.95 "Hg10 mi
4:30 am55 °FClear.5 mph67%29.95 "Hg10 mi
4:00 am55 °FClear.5 mph67%29.92 "Hg10 mi
3:30 am55 °FClear.9 mph67%29.92 "Hg10 mi
3:00 am55 °FClear.9 mph72%29.92 "Hg10 mi
2:30 am54 °FClear.10 mph72%29.95 "Hg10 mi
2:00 am57 °FClear.12 mph63%29.95 "Hg10 mi
1:00 am59 °FClear.12 mph59%29.98 "Hg10 mi
12:30 am59 °FClear.12 mph59%29.98 "Hg10 mi
12:00 am59 °FClear.12 mph55%29.98 "Hg10 mi
11:30 pm
Thu, Apr 27
57 °FPassing clouds.10 mph63%29.98 "HgN/A
11:00 pm59 °FPassing clouds.12 mph55%29.98 "HgN/A
10:30 pm59 °FClear.12 mph55%29.98 "Hg10 mi
10:00 pm59 °FClear.10 mph59%29.98 "Hg10 mi
9:30 pm59 °FClear.9 mph59%29.98 "Hg10 mi
8:30 pm61 °FClear.8 mph55%29.98 "Hg10 mi
8:00 pm63 °FClear.7 mph49%29.98 "Hg10 mi
Weather by CustomWeather, © 2017

See weather overviewHow to use our weather pages